When you browse on this site, cookies collect data to enhance your experience and personalize the content and advertising you see.
Visit our Privacy Policy to learn more. By continuing to use the site, you agree to this use of cookies and data.
  • In Romania
  • List of Countries
  • For 7 days
  • Water Temperature
  • Weather Map
  • Weather Widgets
  • user-avatar
    Login

    Hourly Weather Klyuchevoe

    Today, 30 May, Saturday

    Time Temperature Precipitation Wind Pressure Humidity
    00:00 +18°C° 0.6 mm 3 mps 743 mmHg 92%
    01:00 +18°C° 0 mm 3 mps 742 mmHg 93%
    02:00 +17°C° 0 mm 4 mps 742 mmHg 94%
    03:00 +17°C° 0 mm 4 mps 742 mmHg 95%
    04:00 +17°C° 0 mm 4 mps 742 mmHg 94%
    05:00 +17°C° 0 mm 4 mps 741 mmHg 94%
    06:00 +17°C° 0 mm 4 mps 741 mmHg 93%
    07:00 +17°C° 0 mm 5 mps 741 mmHg 90%
    08:00 +19°C° 0 mm 5 mps 740 mmHg 87%
    09:00 +20°C° 0 mm 5 mps 740 mmHg 84%
    10:00 +20°C° 0 mm 6 mps 740 mmHg 83%
    11:00 +20°C° 0 mm 6 mps 739 mmHg 82%
    12:00 +20°C° 0 mm 6 mps 739 mmHg 81%
    13:00 +20°C° 0.1 mm 6 mps 739 mmHg 82%
    14:00 +20°C° 0.1 mm 6 mps 739 mmHg 84%
    15:00 +20°C° 0.1 mm 6 mps 740 mmHg 85%
    16:00 +19°C° 0.3 mm 5 mps 739 mmHg 87%
    17:00 +18°C° 0.3 mm 4 mps 739 mmHg 89%
    18:00 +17°C° 0.3 mm 3 mps 739 mmHg 91%
    19:00 +17°C° 0 mm 3 mps 739 mmHg 92%
    20:00 +16°C° 0 mm 2 mps 739 mmHg 93%
    21:00 +15°C° 0 mm 2 mps 740 mmHg 94%
    22:00 +15°C° 0 mm 2 mps 740 mmHg 94%
    23:00 +14°C° 0 mm 2 mps 740 mmHg 94%

    Tomorrow, 31 May, Sunday

    Time Temperature Precipitation Wind Pressure Humidity
    00:00 +14°C° 0 mm 2 mps 740 mmHg 95%
    01:00 +13°C° 0 mm 2 mps 739 mmHg 95%
    02:00 +13°C° 0 mm 2 mps 739 mmHg 95%
    03:00 +12°C° 0 mm 3 mps 739 mmHg 96%
    04:00 +12°C° 0 mm 3 mps 739 mmHg 96%
    05:00 +12°C° 0 mm 3 mps 739 mmHg 95%
    06:00 +12°C° 0 mm 4 mps 739 mmHg 95%
    07:00 +13°C° 0 mm 4 mps 739 mmHg 93%
    08:00 +14°C° 0 mm 4 mps 739 mmHg 90%
    09:00 +15°C° 0 mm 5 mps 739 mmHg 88%
    10:00 +15°C° 0.2 mm 5 mps 739 mmHg 86%
    11:00 +15°C° 0.2 mm 5 mps 739 mmHg 84%
    12:00 +16°C° 0.2 mm 6 mps 740 mmHg 82%
    13:00 +16°C° 0.7 mm 6 mps 739 mmHg 80%
    14:00 +17°C° 0.7 mm 5 mps 739 mmHg 79%
    15:00 +17°C° 0.7 mm 5 mps 739 mmHg 77%
    16:00 +17°C° 1.1 mm 5 mps 739 mmHg 80%
    17:00 +16°C° 1.1 mm 5 mps 739 mmHg 83%
    18:00 +15°C° 1.1 mm 5 mps 740 mmHg 85%
    19:00 +14°C° 0.8 mm 5 mps 740 mmHg 88%
    20:00 +12°C° 0.8 mm 5 mps 740 mmHg 91%
    21:00 +10°C° 0.8 mm 5 mps 740 mmHg 94%
    22:00 +11°C° 0.4 mm 4 mps 740 mmHg 94%
    23:00 +10°C° 0.4 mm 4 mps 740 mmHg 94%

    Day after tomorrow, 1 June, Monday

    Time Temperature Precipitation Wind Pressure Humidity
    00:00 +10°C° 0.4 mm 4 mps 740 mmHg 95%
    01:00 +10°C° 0.6 mm 4 mps 740 mmHg 95%
    02:00 +8°C° 0.6 mm 4 mps 740 mmHg 95%
    03:00 +8°C° 0.6 mm 4 mps 740 mmHg 96%
    04:00 +8°C° 0.4 mm 4 mps 741 mmHg 95%
    05:00 +8°C° 0.4 mm 4 mps 741 mmHg 95%
    06:00 +8°C° 0.4 mm 4 mps 741 mmHg 95%
    07:00 +8°C° 0.1 mm 4 mps 741 mmHg 94%
    08:00 +10°C° 0.1 mm 4 mps 741 mmHg 93%
    09:00 +10°C° 0.1 mm 4 mps 742 mmHg 92%
    10:00 +10°C° 0.1 mm 4 mps 742 mmHg 92%
    11:00 +9°C° 0.1 mm 5 mps 742 mmHg 92%
    12:00 +9°C° 0.1 mm 5 mps 742 mmHg 92%
    13:00 +10°C° 0 mm 5 mps 742 mmHg 90%
    14:00 +10°C° 0 mm 5 mps 742 mmHg 89%
    15:00 +10°C° 0 mm 5 mps 742 mmHg 87%
    16:00 +10°C° 0 mm 5 mps 742 mmHg 88%
    17:00 +10°C° 0 mm 6 mps 742 mmHg 88%
    18:00 +10°C° 0 mm 6 mps 742 mmHg 88%
    19:00 +10°C° 0 mm 6 mps 743 mmHg 88%
    20:00 +10°C° 0 mm 6 mps 743 mmHg 88%
    21:00 +10°C° 0 mm 6 mps 743 mmHg 88%
    22:00 +10°C° 0.7 mm 6 mps 743 mmHg 90%
    23:00 +10°C° 0.7 mm 6 mps 743 mmHg 91%

    2 June, Tuesday

    Time Temperature Precipitation Wind Pressure Humidity
    00:00 +10°C° 0.7 mm 6 mps 743 mmHg 93%
    01:00 +9°C° 0.8 mm 7 mps 743 mmHg 94%
    02:00 +9°C° 0.8 mm 7 mps 743 mmHg 95%
    03:00 +9°C° 0.8 mm 7 mps 743 mmHg 96%
    04:00 +9°C° 0.3 mm 7 mps 743 mmHg 95%
    05:00 +9°C° 0.3 mm 6 mps 743 mmHg 95%
    06:00 +8°C° 0.3 mm 6 mps 743 mmHg 95%
    07:00 +9°C° 0.3 mm 6 mps 743 mmHg 95%
    08:00 +9°C° 0.3 mm 6 mps 743 mmHg 95%
    09:00 +9°C° 0.3 mm 6 mps 743 mmHg 95%
    10:00 +9°C° 0.4 mm 6 mps 743 mmHg 95%
    11:00 +9°C° 0.4 mm 6 mps 743 mmHg 95%
    12:00 +9°C° 0.4 mm 6 mps 743 mmHg 95%
    13:00 +9°C° 0.1 mm 6 mps 743 mmHg 95%
    14:00 +9°C° 0.1 mm 6 mps 743 mmHg 94%
    15:00 +10°C° 0.1 mm 6 mps 743 mmHg 93%
    16:00 +10°C° 0 mm 6 mps 743 mmHg 92%
    17:00 +10°C° 0 mm 6 mps 743 mmHg 91%
    18:00 +11°C° 0 mm 6 mps 743 mmHg 91%
    19:00 +12°C° 0 mm 5 mps 743 mmHg 92%
    20:00 +10°C° 0 mm 5 mps 743 mmHg 93%
    21:00 +11°C° 0 mm 4 mps 743 mmHg 94%
    22:00 +11°C° 0 mm 4 mps 743 mmHg 94%
    23:00 +11°C° 0 mm 4 mps 743 mmHg 95%

    3 June, Wednesday

    Time Temperature Precipitation Wind Pressure Humidity
    00:00 +11°C° 0 mm 4 mps 743 mmHg 95%
    01:00 +11°C° 0 mm 4 mps 743 mmHg 96%
    02:00 +11°C° 0 mm 3 mps 743 mmHg 96%
    03:00 +11°C° 0 mm 3 mps 743 mmHg 97%
    04:00 +11°C° 0 mm 3 mps 743 mmHg 97%
    05:00 +11°C° 0 mm 3 mps 743 mmHg 97%
    06:00 +11°C° 0 mm 3 mps 743 mmHg 97%
    07:00 +11°C° 0 mm 3 mps 743 mmHg 96%
    08:00 +12°C° 0 mm 3 mps 743 mmHg 95%
    09:00 +12°C° 0 mm 3 mps 744 mmHg 95%
    10:00 +13°C° 0 mm 3 mps 744 mmHg 92%
    11:00 +14°C° 0 mm 3 mps 744 mmHg 90%
    12:00 +14°C° 0 mm 3 mps 744 mmHg 87%
    13:00 +16°C° 0.1 mm 3 mps 744 mmHg 84%
    14:00 +17°C° 0.1 mm 3 mps 744 mmHg 81%
    15:00 +18°C° 0.1 mm 3 mps 744 mmHg 78%
    16:00 +18°C° 0.2 mm 3 mps 744 mmHg 80%
    17:00 +18°C° 0.2 mm 4 mps 744 mmHg 81%
    18:00 +18°C° 0.2 mm 4 mps 744 mmHg 83%
    19:00 +15°C° 0.1 mm 4 mps 744 mmHg 87%
    20:00 +14°C° 0.1 mm 3 mps 744 mmHg 91%
    21:00 +13°C° 0.1 mm 3 mps 744 mmHg 96%
    22:00 +13°C° 0 mm 3 mps 745 mmHg 96%
    23:00 +12°C° 0 mm 3 mps 745 mmHg 97%

    4 June, Thursday

    Time Temperature Precipitation Wind Pressure Humidity
    00:00 +12°C° 0 mm 3 mps 745 mmHg 98%
    01:00 +12°C° 0 mm 3 mps 745 mmHg 98%
    02:00 +12°C° 0 mm 3 mps 744 mmHg 98%
    03:00 +12°C° 0 mm 3 mps 744 mmHg 98%
    04:00 +13°C° 0 mm 3 mps 744 mmHg 97%
    05:00 +13°C° 0 mm 3 mps 744 mmHg 97%
    06:00 +13°C° 0 mm 3 mps 744 mmHg 96%
    07:00 +14°C° 0.3 mm 3 mps 744 mmHg 95%
    08:00 +15°C° 0.3 mm 4 mps 744 mmHg 94%
    09:00 +17°C° 0.3 mm 4 mps 744 mmHg 93%
    10:00 +16°C° 0.8 mm 5 mps 744 mmHg 90%
    11:00 +17°C° 0.8 mm 6 mps 744 mmHg 88%
    12:00 +19°C° 0.8 mm 6 mps 744 mmHg 86%
    13:00 +18°C° 0.9 mm 7 mps 744 mmHg 85%
    14:00 +20°C° 0.9 mm 7 mps 744 mmHg 84%
    15:00 +20°C° 0.9 mm 7 mps 743 mmHg 83%
    16:00 +20°C° 1.2 mm 6 mps 743 mmHg 84%
    17:00 +20°C° 1.2 mm 6 mps 743 mmHg 85%
    18:00 +19°C° 1.2 mm 6 mps 743 mmHg 86%
    19:00 +19°C° 0.4 mm 6 mps 743 mmHg 87%
    20:00 +17°C° 0.4 mm 6 mps 743 mmHg 88%
    21:00 +16°C° 0.4 mm 5 mps 743 mmHg 89%
    22:00 +16°C° 0.5 mm 6 mps 743 mmHg 90%
    23:00 +16°C° 0.5 mm 6 mps 743 mmHg 90%
    Show more